Theta_e
310 309 311 311 308 308 307 309 310 309 310 311 310 309 311 311 310 312 314 315 317 317 317 316 314 313 313 314 315 314 314 312 312 312 314 323 322 324 324 323 329 327 325 325
309 310 309 309 308 310 310 311 311 310 309 310 310 310 309 310 310 313 314 315 316 314 315 315 314 313 313 312 312 312 311 311 311 311 312 316 318 323 324 325 321 324 322 323
310 311 309 310 309 310 309 311 310 312 310 308 308 310 309 309 310 311 313 315 313 312 313 314 314 314 313 312 312 311 311 310 311 312 313 315 319 323 320 320 322 323 322 321
310 310 310 310 311 310 311 308 310 311 313 313 309 315 312 311 311 309 315 312 314 314 314 313 313 313 313 312 311 310 310 310 311 312 314 315 316 318 319 321 321 322 321 321
312 310 310 311 310 309 311 308 309 310 310 311 311 313 315 311 313 312 312 314 314 314 314 313 312 311 311 311 310 310 310 309 310 311 312 313 315 319 320 321 319 318 319 319
311 310 310 311 309 309 307 309 308 307 308 314 311 314 316 313 313 311 312 312 313 313 314 314 313 311 310 309 308 309 309 309 310 311 313 315 316 316 317 317 318 317 317 316
311 311 310 310 310 309 310 312 315 315 313 317 309 311 316 313 310 309 312 312 312 313 313 313 313 311 310 309 308 308 308 309 309 310 313 315 313 313 315 315 316 316 315 311
315 316 309 308 311 312 309 312 315 316 315 316 309 313 314 308 310 310 310 311 313 312 311 311 311 309 309 308 307 307 308 308 308 308 309 312 311 312 313 313 314 314 312 310
314 314 309 308 309 312 310 312 311 312 296 310 313 311 310 309 309 309 310 311 311 310 310 310 309 309 308 308 307 307 307 307 307 307 309 310 310 311 312 313 312 310 307 307
314 316 310 309 309 309 310 309 314 313 317 318 314 312 316 313 312 309 309 308 309 310 310 310 309 309 308 307 307 306 307 307 307 307 308 308 309 310 312 311 310 309 305 296
311 314 312 309 309 310 310 311 312 313 312 314 312 316 307 311 310 309 308 310 310 310 310 310 310 310 309 307 307 306 306 306 306 306 307 307 308 308 308 308 308 306 298 296
312 315 313 310 308 310 309 312 313 317 313 310 311 317 309 308 306 308 308 307 310 311 312 312 312 311 310 309 308 307 306 306 306 306 306 308 309 309 308 307 304 303 296 297
313 313 317 316 314 311 311 310 313 312 312 311 317 318 305 306 306 307 307 307 310 311 312 312 312 311 310 309 308 307 306 306 306 306 306 307 307 307 307 306 303 296 298 295
313 312 315 317 315 313 313 310 311 314 318 312 316 317 313 308 307 306 307 311 313 313 313 313 313 312 312 310 308 308 306 306 306 306 305 306 307 307 306 304 301 297 297 292
313 313 314 313 311 312 311 312 311 313 315 318 318 315 315 312 307 310 312 312 311 311 312 313 313 313 312 311 309 307 306 305 305 305 304 305 306 305 303 302 299 298 294 289
311 313 313 315 313 310 312 311 310 312 313 314 315 314 314 314 314 311 314 314 313 313 314 314 313 312 312 312 309 307 305 305 304 304 304 304 304 303 301 300 298 295 289 289
310 310 312 316 314 312 314 314 310 311 311 312 314 314 314 311 309 311 313 312 313 313 313 313 313 313 312 311 310 308 305 303 302 302 303 303 303 302 300 299 297 293 289 286
310 309 309 313 311 316 314 307 312 313 312 311 309 311 311 310 312 313 313 311 312 312 312 312 312 312 312 311 309 307 304 303 301 301 301 301 303 301 299 297 296 293 288 289
308 310 312 313 313 312 311 306 308 311 313 311 311 311 311 312 310 311 311 312 311 311 311 311 311 310 310 310 309 306 303 302 300 300 300 299 299 298 297 296 293 288 288 288
304 307 311 312 314 313 308 299 302 304 314 306 309 310 310 309 308 311 311 310 310 309 309 309 309 309 309 309 308 304 303 301 301 300 299 298 297 297 296 294 293 291 288 286
303 306 310 311 312 312 306 300 304 311 308 302 305 308 308 305 306 308 308 308 309 308 308 309 308 308 307 306 305 304 302 301 300 299 297 296 296 296 295 292 292 288 287 289
304 305 305 307 310 310 303 302 307 304 303 302 302 304 305 305 304 306 307 307 306 307 307 307 307 306 306 305 304 303 302 300 298 297 296 295 294 294 293 291 293 288 288 288
304 303 304 304 306 302 303 302 306 306 303 301 301 302 301 301 301 303 304 305 305 305 306 306 306 306 305 305 304 302 301 299 298 297 295 294 293 292 292 291 292 290 289 287
294 297 300 300 301 300 304 303 302 304 304 303 304 299 299 300 301 302 303 303 303 302 302 302 303 303 304 304 302 300 298 297 297 296 295 294 293 292 291 289 292 291 290 288
296 296 294 295 298 300 302 302 302 303 303 304 300 299 300 302 301 302 305 302 297 297 297 297 298 298 299 301 301 299 297 295 295 294 293 292 292 291 291 291 291 291 291 289
294 297 297 298 299 300 301 302 302 303 303 303 300 300 299 297 297 299 300 296 296 295 296 296 297 297 298 299 299 297 295 295 294 293 292 292 292 291 290 290 290 289 289 290
Wind_Speed
3 4 7 15 7 4 6 4 5 4 4 4 8 10 16 16 17 28 35 36 40 43 37 32 32 34 36 36 36 35 33 32 31 33 34 35 31 32 30 29 32 25 27 28
4 8 11 6 7 5 3 4 5 6 3 6 8 11 13 20 17 32 38 40 46 38 38 34 32 36 39 38 36 35 33 31 29 30 30 33 32 32 31 29 31 29 28 27
9 5 4 8 5 6 4 6 5 7 4 3 6 7 7 9 21 30 39 44 36 30 32 30 30 35 39 41 39 36 32 29 28 28 28 31 33 33 32 34 27 24 24 23
6 4 6 4 4 7 5 8 5 3 2 5 3 7 4 7 8 5 32 23 24 23 23 23 23 29 36 40 38 35 32 29 29 28 29 30 32 33 32 31 32 25 21 27
7 8 5 5 7 8 6 5 6 3 3 3 3 4 3 2 5 13 12 15 11 9 11 13 14 18 27 34 36 35 33 31 30 29 29 29 28 29 28 28 28 29 29 29
2 2 6 7 3 4 9 6 5 4 2 4 9 7 5 6 6 6 3 2 2 11 11 9 10 14 20 28 34 35 34 32 29 27 27 30 30 30 30 31 31 27 33 27
3 4 3 5 7 4 1 6 1 3 0 8 1 3 10 8 7 6 3 10 11 6 7 9 11 13 18 23 30 34 34 32 29 28 29 31 28 29 28 30 33 35 32 32
9 8 11 7 8 9 9 7 6 7 4 4 2 8 6 8 13 12 12 11 14 17 16 12 10 10 13 18 26 31 33 30 28 28 28 29 27 29 31 33 36 38 35 37
6 6 1 3 3 9 7 7 5 6 2 2 5 7 8 11 11 10 9 9 8 5 4 4 6 7 10 14 21 27 29 28 27 27 26 28 29 30 31 35 38 40 39 36
5 3 2 3 3 2 5 7 3 1 4 6 5 6 7 6 6 5 3 2 1 1 1 1 2 5 8 12 16 22 25 26 26 25 25 26 28 30 32 32 37 40 37 37
5 5 1 4 7 11 3 4 2 5 4 5 2 6 7 10 7 7 3 2 0 2 3 2 1 2 6 9 14 18 24 26 26 25 25 26 28 30 32 33 36 38 38 39
4 4 5 7 2 2 1 7 6 5 5 4 2 10 2 5 7 7 6 6 8 8 7 5 3 3 7 11 15 18 22 25 25 24 24 26 29 29 30 31 33 37 40 38
5 3 3 1 2 3 4 4 11 3 3 7 6 8 2 1 5 7 7 9 12 8 2 3 6 8 10 13 16 20 23 26 26 26 25 28 30 31 32 32 34 38 40 38
21 4 5 5 5 5 6 7 10 15 9 4 18 10 6 5 7 8 10 9 7 9 11 13 14 14 12 16 20 23 26 28 28 29 27 29 31 32 32 33 35 40 41 39
7 6 9 13 8 5 5 12 19 20 24 13 23 17 28 13 10 20 19 15 17 17 18 19 20 18 18 23 25 28 29 30 30 31 30 30 31 31 33 34 37 41 41 41
1 4 4 13 13 9 6 8 17 25 22 21 23 18 17 17 28 12 24 19 19 21 27 26 25 25 27 28 30 30 32 32 33 31 31 30 32 32 33 33 38 42 44 43
4 4 4 10 7 11 13 26 11 8 14 22 21 31 22 6 8 16 29 26 28 27 28 29 27 27 27 28 30 30 31 32 33 32 32 31 34 34 34 34 38 43 45 43
6 6 3 7 2 10 4 3 17 21 20 17 16 24 19 9 19 27 32 25 26 31 30 31 30 28 27 28 26 26 28 30 33 34 32 32 36 36 35 36 39 41 43 42
16 9 6 6 10 7 6 6 8 11 21 21 22 24 33 40 13 32 25 29 30 27 24 21 18 18 21 22 21 23 26 28 31 33 32 34 35 36 36 36 37 42 44 44
7 13 9 8 9 13 8 3 3 5 13 7 19 23 23 13 6 14 23 8 10 11 11 11 13 14 15 17 19 21 23 26 28 30 31 32 33 35 35 36 37 38 42 44
2 3 14 15 11 4 5 2 7 6 5 5 6 18 13 6 8 6 6 6 8 7 6 5 6 9 9 11 13 17 19 23 23 23 26 28 31 31 32 35 35 40 45 44
4 3 2 3 6 6 7 5 8 2 5 9 5 4 11 13 13 15 15 12 7 5 4 5 5 5 6 7 9 12 14 14 17 19 21 24 26 29 32 35 33 43 46 43
4 4 2 4 3 4 6 7 16 17 12 8 10 6 7 7 8 8 8 7 6 7 7 6 6 5 5 6 7 9 10 13 16 18 19 21 23 27 29 33 32 40 44 46
4 5 4 2 8 10 19 15 18 19 14 14 20 13 8 7 7 6 7 9 9 7 5 4 4 4 4 5 6 7 9 11 13 14 17 19 22 25 27 33 32 37 42 48
9 5 4 5 8 16 28 32 34 17 17 31 25 19 14 11 12 11 9 11 12 9 6 6 6 5 6 7 7 9 11 11 12 13 15 17 20 23 27 30 33 35 38 43
10 14 10 14 20 7 10 12 8 11 22 21 22 22 16 16 13 10 11 12 12 8 8 7 6 6 7 9 9 10 10 10 11 12 14 15 17 20 24 27 31 34 38 39
Wind_Direction
137 120 182 211 188 141 138 179 210 239 238 186 229 240 260 263 254 262 263 262 262 260 259 246 238 235 232 231 231 233 236 239 237 235 229 223 224 225 225 239 221 234 231 249
65 225 222 112 154 154 159 193 246 282 247 191 271 250 250 258 244 246 254 260 262 261 262 255 243 236 235 235 235 235 237 238 237 231 227 221 219 222 221 227 241 232 246 238
181 196 171 158 154 163 202 196 202 230 322 238 313 271 235 268 246 251 255 258 263 267 273 267 251 240 236 234 234 234 236 235 231 226 221 220 218 222 226 226 233 233 225 235
238 211 138 160 186 152 231 202 177 195 61 256 10 289 256 240 250 254 256 262 274 282 281 275 260 243 238 235 231 232 234 232 228 224 222 223 226 223 222 231 230 226 232 210
233 166 160 175 197 164 222 130 163 132 180 354 316 274 237 145 266 255 273 283 295 300 288 277 267 253 244 238 231 230 230 228 225 223 220 224 222 222 221 221 235 231 214 216
233 161 169 190 112 153 150 85 63 63 97 268 197 196 154 188 211 253 215 175 205 316 301 275 248 236 235 233 228 227 227 228 224 219 214 219 222 226 229 229 218 230 208 206
126 218 185 149 92 44 157 116 286 322 1 241 20 250 254 280 229 234 256 279 292 320 306 286 264 250 238 229 226 223 225 225 220 219 216 216 222 229 231 232 234 226 208 198
186 245 165 191 179 169 199 173 168 211 205 267 147 238 249 235 269 274 282 291 294 291 285 276 257 242 236 227 225 222 223 222 221 221 219 218 221 224 230 231 231 213 208 204
162 259 254 167 146 155 195 208 165 104 48 20 224 283 278 258 276 276 270 276 278 275 252 241 243 236 235 230 227 223 222 223 224 226 222 221 225 227 228 228 222 216 204 204
216 271 197 185 123 64 170 163 100 319 171 239 262 272 227 252 193 220 132 346 8 199 148 166 203 224 229 228 226 222 222 228 227 225 226 230 229 229 230 230 220 212 207 196
151 194 139 126 205 170 148 206 131 128 159 183 285 261 219 222 177 170 175 18 169 154 96 76 142 233 235 229 225 221 220 224 224 222 223 230 233 237 234 227 220 218 202 199
178 164 201 199 295 324 67 197 155 185 210 234 155 259 194 203 160 168 202 199 129 127 117 112 109 234 245 237 226 224 224 228 231 230 229 226 227 232 233 230 225 213 207 203
161 203 136 229 0 334 221 202 201 125 99 202 164 260 72 170 254 225 191 165 137 138 149 295 269 248 237 232 230 230 230 231 231 231 229 230 228 231 231 227 220 212 213 204
153 203 173 207 242 149 183 205 210 207 213 153 227 249 236 200 222 195 185 169 212 245 273 279 266 260 258 249 236 231 230 232 234 233 233 232 230 230 230 231 222 214 210 202
182 210 217 234 226 201 207 192 200 203 217 206 248 228 249 216 211 233 243 256 255 256 260 266 260 257 266 253 244 237 234 230 230 235 235 235 233 232 232 225 218 214 205 201
187 304 220 244 241 213 227 229 205 211 219 226 248 252 251 197 228 246 255 250 252 258 273 273 267 268 265 254 247 240 236 234 231 228 235 237 235 235 232 226 219 209 201 204
167 211 195 265 263 220 228 228 204 205 220 214 230 241 260 223 201 240 261 255 258 266 275 276 275 274 269 261 251 246 240 235 233 232 231 232 235 234 232 226 218 210 203 201
246 239 234 267 82 262 253 296 224 226 233 229 260 261 270 228 246 259 262 259 270 278 279 279 275 270 263 258 248 243 237 234 231 231 231 232 233 232 229 226 219 211 203 206
218 223 244 252 257 288 294 198 169 183 246 234 233 251 260 268 260 270 276 282 281 274 271 272 267 260 248 248 246 239 230 226 227 229 230 232 232 231 230 226 219 205 204 207
227 232 222 233 253 254 233 238 203 93 241 233 209 237 245 251 253 270 289 250 267 266 267 266 262 250 236 233 235 231 226 223 225 227 230 231 231 232 233 229 221 210 207 207
176 209 227 234 245 257 273 211 160 163 243 341 253 244 267 212 243 260 229 234 264 264 238 245 244 231 220 222 220 219 221 225 227 229 230 231 232 234 233 228 223 210 208 215
184 204 220 250 233 262 190 122 172 217 310 301 290 281 272 276 283 269 265 268 252 239 245 237 224 219 215 217 219 217 221 222 225 228 231 232 232 230 227 226 228 210 214 212
275 200 191 229 236 201 215 332 310 303 301 314 295 284 268 284 307 303 277 243 235 249 240 227 209 204 203 208 206 208 210 213 216 220 223 225 227 229 230 223 228 217 210 214
271 191 240 220 239 239 257 262 265 278 269 292 280 273 261 277 287 276 252 258 250 228 222 213 207 187 187 197 203 201 213 222 222 225 224 223 223 223 226 223 227 221 215 218
237 146 231 268 287 289 282 280 276 273 253 252 260 258 266 273 273 261 256 260 246 220 212 206 201 171 173 185 190 198 209 213 215 216 218 222 225 225 225 227 230 229 230 227
203 229 232 250 250 219 276 294 283 258 245 257 263 268 277 281 270 254 219 211 220 231 223 211 197 197 194 195 193 193 198 204 211 213 215 219 224 227 229 230 231 234 239 241